Weather Roundup
Issued by NWS

Home | Current Version | Previous Version | Text Only | Print | Product List | Glossary On
Versions: 1 2 3 4 5 6 7 8 9 10 11 12 13 14 15 16 17 18 19 20 21 22 23 24 25 26 27 28 29 30 31 32 33 34 35 36 37 38 39 40 41 42 43 44 45 46 47 48 49 50
000
NZUS93 KARX 040410
HRRWXR

CURRENT HOURLY OBSERVATIONS ACROSS
MUCH OF THE UPPER MISSISSIPPI VALLEY
NATIONAL WEATHER SERVICE LA CROSSE WI
1100 PM CDT MON AUG 03 2015


...SOUTHEAST MINNESOTA...


CITY           SKY/WX    TMP DP  RH WIND       PRES   REMARKS
ROCHESTER      CLEAR     61  53  75 W9        29.96S
ROCHESTER/MAYO FAIR      67  52  59 W7        29.94S
WINONA         CLEAR     63  54  72 CALM      29.92S
AUSTIN         CLEAR     66  55  68 CALM      29.95S
ALBERT LEA     CLEAR     61  55  82 CALM      29.96S
DODGE CENTER   CLEAR     63  52  67 NW6       29.95S
PRESTON        CLEAR     60  52  74 W7        29.95S
OWATONNA       CLEAR     57  54  88 CALM      29.95S
FARIBAULT      CLEAR     61  55  82 W5        29.95S
$$

...ELSEWHERE IN MINNESOTA...


CITY           SKY/WX    TMP DP  RH WIND       PRES   REMARKS
MINNEAPOLIS    PTCLDY    69  53  56 W6        29.93R
INTNL FALLS    CLEAR     49  48  97 CALM      29.88S
DULUTH         PTCLDY    59  51  75 W6        29.90S
RED WING       CLEAR     63  55  77 CALM      29.91R
REDWOOD FALLS  CLEAR     68  53  58 NW6       29.96R
MANKATO        CLEAR     64  52  63 SW5       29.95R
WORTHINGTON    CLEAR     63  54  72 NW3       30.00R
FAIRMONT       CLEAR     63  52  67 CALM      29.97S
$$

...SOUTHWEST WISCONSIN...


CITY           SKY/WX    TMP DP  RH WIND       PRES   REMARKS
LA CROSSE      CLEAR     65  55  70 SE5       29.91R
PRAIRIE DU CHI CLEAR     62  55  77 CALM      29.92F
BOSCOBEL       CLEAR     59  55  87 CALM      29.93S
LONE ROCK      CLEAR     59  54  83 CALM      29.93R
PLATTEVILLE    CLEAR     64  55  70 CALM      29.94S
FORT MC COY    CLEAR     56  52  84 CALM      29.93R
CAMP DOUGLAS   PTCLDY    54  54 100 CALM      29.91R
VIROQUA        FAIR      60  53  78 SW3       29.94S
WIS DELLS      CLEAR     60  50  69 CALM      29.92S
$$

...ELSEWHERE IN WISCONSIN...


CITY           SKY/WX    TMP DP  RH WIND       PRES   REMARKS
MILWAUKEE      PTCLDY    72  50  45 W7        29.89R
MADISON        PTCLDY    64  52  64 NW3       29.91S
GREEN BAY      PTCLDY    65  56  72 W7        29.87R
EAU CLAIRE     CLOUDY    66  53  63 W5        29.89S
BLACK RVR FLS  FAIR      53  53  99 CALM      29.91S
MEDFORD        CLOUDY    62  56  80 CALM      29.90S
WAUSAU         CLOUDY    65  55  70 NW3       29.88R
WIS RAPIDS     LGT RAIN  56  51  84 W5        29.91S
MARSHFIELD     MOCLDY    57  52  83 SW6       29.90S
RICE LAKE      PTCLDY    62  54  73 CALM      29.93R
$$

...NORTHEAST IOWA...


CITY           SKY/WX    TMP DP  RH WIND       PRES   REMARKS
DECORAH        CLEAR     59  55  88 CALM      29.94S
MASON CITY     CLEAR     61  56  83 W3        29.98R
CHARLES CITY   CLEAR     59  59 100 W5        29.96S
OELWEIN        CLEAR     61  57  88 W3        29.96S
$$

...ELSEWHERE IN IOWA...


CITY           SKY/WX    TMP DP  RH WIND       PRES   REMARKS
DES MOINES     PTCLDY    73  57  57 N3        29.96S
IOWA CITY      CLEAR     65  59  81 S5        29.96S
FORT DODGE     CLEAR     63  57  82 CALM      29.98R
$$

...NORTHERN ILLINOIS...


CITY           SKY/WX    TMP DP  RH WIND       PRES   REMARKS
CHICAGO-OHARE  CLEAR     69  55  60 W6        29.90S
CHICAGO-MIDWAY CLEAR     73  53  49 W7        29.91R
MOLINE         CLEAR     64  57  78 SW3       29.95R
ROCKFORD       CLEAR     64  56  75 W5        29.94R
PEORIA         CLEAR     70  59  68 NW3       29.96R
$$

NOTE: "FAIR" INDICATES FEW OR NO CLOUDS BELOW 12,000 FEET WITH NO
SIGNIFICANT WEATHER AND/OR OBSTRUCTIONS TO VISIBILITY. WIND
SPEEDS ARE IN MILES-PER-HOUR.



USA.gov is the U.S. government's official web portal to all federal, state and local government web resources and services.